Flag for U.S.A. Weather past 2 weeks in Germantown, Maryland, U.S.A.

Now
84 °F

Sunny.


Feels Like: 84 °F
Forecast: 62 / 86 °F
Wind: 16 mph from Southwest

Location: Frederick Municipal Airport

Current Time: May 25, 2015 at 6:44:08 PM

Latest Report: May 25, 2015 at 5:45 PM


Visibility: 10 mi

Pressure: 30.20 "Hg

Humidity: 45%

Dew point: 61 °F

Location of GermantownLocation

Historic Weather in Germantown — Graph

°F

Germantown temperature yesterday

Maximum temperature yesterday: 82 °F (at 3:45 PM)
Minimum temperature yesterday: 45 °F (at 3:45 AM)
Average temperature yesterday: 57 °F

Past Weeks' High & Low Weather Summary

 TemperatureHumidityPressure
High91 °F (May 18, 3:59 PM)100% (May 16, 2:40 AM)30.50 "Hg (May 16, 2:40 AM)
Low39 °F (May 14, 5:55 AM)15% (May 12, 4:55 PM)29.87 "Hg (May 19, 4:50 PM)
Average64 °F70%30.16 "Hg
* Reported May 10 3:45 PM — May 25 3:47 PM, Germantown, Weather by CustomWeather, © 2015

Note: Actual official high and low records may vary slightly from our data, if they occured in-between our weather recording intervals... More about our weather records

Advertising

Germantown weather history for previous 24 hours

 ConditionsComfort  
Time TempWeatherWind HumidityBarometerVisibility
3:47 PM
Mon, May 25
84 °FScattered clouds.13 mph45%30.21 "Hg10 mi
2:47 PM86 °FSunny.20 mph43%30.22 "Hg10 mi
1:45 PM84 °FSunny.16 mph45%30.23 "Hg10 mi
11:47 AM79 °FSunny.10 mph58%30.27 "Hg10 mi
10:47 AM77 °FSunny.9 mph61%30.28 "Hg10 mi
9:51 AM73 °FSunny.8 mph65%30.29 "Hg10 mi
7:54 AM66 °FMild.No wind83%30.30 "HgN/A
6:55 AM57 °FSunny.No wind100%30.28 "Hg10 mi
6:25 AM54 °FFog.No wind100%30.27 "Hg3 mi
6:05 AM54 °FFog.No wind100%30.26 "Hg4 mi
5:45 AM54 °FFog.No wind100%30.26 "Hg1 mi
5:25 AM55 °FClear.No wind100%30.25 "Hg10 mi
5:05 AM54 °FClear.No wind100%30.25 "Hg7 mi
4:45 AM55 °FClear.No wind100%30.25 "Hg7 mi
4:25 AM54 °FClear.No wind100%30.26 "Hg7 mi
4:05 AM55 °FClear.No wind100%30.26 "Hg7 mi
3:45 AM55 °FClear.No wind100%30.27 "Hg7 mi
3:25 AM55 °FClear.No wind100%30.26 "Hg7 mi
3:05 AM55 °FClear.No wind100%30.26 "Hg10 mi
2:45 AM55 °FClear.No wind94%30.26 "Hg10 mi
2:25 AM55 °FClear.No wind100%30.26 "Hg10 mi
2:05 AM57 °FClear.No wind100%30.26 "Hg10 mi
1:45 AM57 °FClear.No wind94%30.26 "Hg10 mi
1:25 AM55 °FClear.No wind100%30.27 "Hg10 mi
1:05 AM59 °FClear.No wind94%30.27 "Hg10 mi
12:45 AM59 °FClear.No wind94%30.27 "Hg10 mi
12:25 AM61 °FClear.No wind83%30.28 "Hg10 mi
11:45 PM
Sun, May 24
61 °FClear.No wind94%30.28 "Hg10 mi
11:25 PM61 °FClear.No wind88%30.28 "Hg10 mi
11:05 PM63 °FClear.No wind77%30.28 "Hg10 mi
10:40 PM63 °FClear.No wind77%30.28 "Hg10 mi
7:45 PM75 °FSunny.No wind39%30.27 "Hg10 mi
6:45 PM81 °FSunny.3 mph32%30.27 "Hg10 mi
Weather by CustomWeather, © 2015

See weather overviewHow to use our weather pages